星链-3638 (STARLINK-3638 )

导读

STARLINK-3638是美国SpaceX公司星链(Starlink)星座中的一颗低轨通信卫星,于北京时间2022年2月25日发射入轨,隶属于星链第一代组网卫星。它运行在约550公里近地轨道,配备相控阵天线与氩气推进系统,用于实现全球高速低延迟宽带互联网覆盖,属于SpaceX大规模卫星互联网组网计划的组成部分。

基本信息
目录编号:
51786
目录名称:
STARLINK-3638
国际标识:
2022-017U
轨道中心:
EARTH
卫星名称:
星链-3638
卫星全名:
星链-3638 (STARLINK-3638 )
卫星状态:
在轨 (已飞行1573 天)
发射日期:
2022-02-25 UTC
国别 :
美国 (US)
星等 :
--
轨道信息
数据来源 国际轨道数据
星历时间: 2026-06-17T19:31:58+0800
5小时前
查看轨道信息
半长轴: 6917.985km
偏心率: 0.000112
轨道倾角: 53.160°
近地点辐角 101.400°
升交点赤经 261.043°
平近点角 258.711°
近地点: 539.073km
远地点: 540.623km
周期: 95.440分钟
每日圈数: 15.088059
详细信息
固有亮度:
5
最大亮度:
2.5
卫星平台:
Starlink v1.5
覆盖范围:
全球
运营商:
太空探索技术公司
运营商所在国:
美国
制造商(研发单位):
太空探索技术公司
制造商所在国:
美国
使用方式:
暂无
卫星简介
星链(Starlink)计划是由太空探索技术公司(SpaceX)提出的一个巨型低轨卫星互联网星座项目,计划在2019年至2024年间在太空搭建由约1.2万颗卫星组成的“星链”网络,其中1584颗将部署在地球上空550千米处的近地轨道,并从2020年开始工作。该卫星仍在工作。
2D轨道图
3D轨道图
轨道高度分析图
轨道倾角分析图
轨道综合分析图
查看轨道综合分析图